Hourly Data Report for June 23, 2020

BORDEN AWOS
ONTARIO
Current Station Operator: DND

44°16'20.000" N
79°54'42.000" W
222.50 m
611B002
71534
YBN

Download Data

Hourly Data (June 2020)
Hourly Data Report for June 23, 2020
TIME
LST
Temp Definition
°C
Dew Point Definition
°C
Rel Hum Definition
%
Precip. Amount Definition
mm

Wind Dir Definition
10's deg

Wind Spd Definition
km/h
Visibility Definition
km
Stn Press Definition
kPa
Hmdx Definition


Wind Chill Definition


Weather Definition


00:00 21.0 19.3 90     0 14.5 98.23 28   LegendNANA
01:00 20.1 18.8 92     0 14.5 98.13 27   LegendNANA
02:00 19.9 18.8 93   11 4 9.7 98.03     LegendNANA
03:00 18.9 18.5 98   20 6 2.7 98.01     LegendNANA
04:00 19.1 18.9 99     0 2.4 97.95     LegendNANA
05:00 20.1 19.1 94   16 7 6.4 97.94 27   LegendNANA
06:00 20.4 19.2 93   17 11 9.7 97.91 27   LegendNANA
07:00 21.9 19.5 86   14 11 14.5 97.86 29   LegendNANA
08:00 23.7 18.7 74   17 11 14.5 97.79 30   LegendNANA
09:00 23.8 19.5 77   16 19 14.5 97.73 31   LegendNANA
10:00 22.0 19.9 88   16 19 12.9 97.70 29   Rain
11:00 22.3 20.8 91   17 13 9.7 97.67 31   Rain
12:00 22.1 20.7 92   16 9 6.4 97.61 30   Moderate Rain
13:00 21.2 20.4 95   15 15 14.5 97.52 29   LegendNANA
14:00 20.4 19.8 96   13 11 6.4 97.42 28   Rain
15:00 21.5 20.8 96   16 20 14.5 97.32 30   LegendNANA
16:00 21.9 21.1 95   16 11 11.3 97.26 30   Rain
17:00 22.3 21.1 93   20 17 9.7 97.20 31   Rain
18:00 23.5 21.4 88   24 13 14.5 97.23 32   LegendNANA
19:00 23.2 18.6 75   22 13 14.5 97.24 30   LegendNANA
20:00 20.7 17.1 80   25 17 14.5 97.29 26   LegendNANA
21:00 19.2 16.0 82   23 20 14.5 97.35     LegendNANA
22:00 17.4 13.6 78   23 19 14.5 97.38     LegendNANA
23:00 16.8 13.6 81   21 20 14.5 97.37     LegendNANA

Notes on Data Quality.

Legend

  • E = Estimated
  • M = Missing
  • NA = Not Available*
  • [empty] = Indicates an unobserved value
Date modified: